WZZ89GN HEMA-EPKT

Flight info

Callsign WZZ89GN
Flight time N/A
Altitude 34000
Route ALKUN1B ALKUN V730 MEMPO DCT LXR DCT AST DCT KUNKI L321 REXUM/N0459F340 DCT SOBAX DCT NOGLI DCT ANTAR UN133 ATFIR DCT LOMOS DCT NARKA DCT KEKED DCT LENOV
Aircraft A321/M-SDE1E2E3FGIJ1J4RWXY/LB1

Departure

Time 2026-04-26 14:05
Airport Marsa Alam International Airport (HEMA)

Arrival

Time N/A
Airport Katowice Wojciech Korfanty International Airport (EPKT)
Time Latitude Longitude Altitude Speed Heading
2026-04-26 13:49 25.55512 34.59064 242 ft 0 kts 60°
2026-04-26 13:54 25.55510 34.59060 242 ft 3 kts 60°
2026-04-26 13:54 25.55499 34.59038 242 ft 2 kts 60°
2026-04-26 13:54 25.55484 34.59016 242 ft 4 kts 33°
2026-04-26 13:55 25.55437 34.59015 242 ft 3 kts 330°
2026-04-26 13:55 25.55422 34.59024 242 ft 2 kts 330°
2026-04-26 13:55 25.55420 34.59025 242 ft 2 kts 330°
2026-04-26 13:57 25.55430 34.59019 242 ft 4 kts 330°
2026-04-26 13:58 25.55465 34.58997 242 ft 8 kts 330°
2026-04-26 13:58 25.55523 34.58959 242 ft 12 kts 330°
2026-04-26 13:58 25.55604 34.58908 242 ft 13 kts 330°
2026-04-26 13:58 25.55619 34.58823 243 ft 12 kts 246°
2026-04-26 13:59 25.55592 34.58771 249 ft 4 kts 240°
2026-04-26 13:59 25.55580 34.58749 251 ft 4 kts 239°
2026-04-26 13:59 25.55559 34.58708 254 ft 9 kts 239°
2026-04-26 14:00 25.55518 34.58508 257 ft 11 kts 323°
2026-04-26 14:00 25.55593 34.58458 259 ft 14 kts 330°
2026-04-26 14:00 25.55650 34.58422 261 ft 15 kts 330°
2026-04-26 14:01 25.55756 34.58355 261 ft 20 kts 330°
2026-04-26 14:01 25.55888 34.58269 263 ft 24 kts 329°
2026-04-26 14:01 25.56101 34.58132 259 ft 28 kts 329°
2026-04-26 14:01 25.56267 34.58025 258 ft 28 kts 330°
2026-04-26 14:02 25.56380 34.57954 257 ft 28 kts 329°
2026-04-26 14:02 25.56542 34.57848 260 ft 26 kts 330°
2026-04-26 14:02 25.56698 34.57749 263 ft 25 kts 330°
2026-04-26 14:02 25.56841 34.57658 265 ft 23 kts 329°
2026-04-26 14:03 25.56985 34.57577 265 ft 23 kts 344°
2026-04-26 14:03 25.57071 34.57553 266 ft 7 kts 311°
2026-04-26 14:03 25.57061 34.57527 266 ft 3 kts 197°
2026-04-26 14:03 25.57024 34.57541 266 ft 11 kts 153°
2026-04-26 14:04 25.56848 34.57654 265 ft 59 kts 149°
2026-04-26 14:04 25.56306 34.58001 257 ft 119 kts 150°
2026-04-26 14:04 25.55438 34.58556 258 ft 167 kts 150°
2026-04-26 14:04 25.54382 34.59221 722 ft 171 kts 150°
2026-04-26 14:05 25.53348 34.59870 1414 ft 171 kts 149°
2026-04-26 14:05 25.52309 34.60530 2057 ft 172 kts 148°
2026-04-26 14:05 25.51241 34.61215 2249 ft 187 kts 148°
2026-04-26 14:05 25.50045 34.61906 2384 ft 204 kts 162°
2026-04-26 14:06 25.48578 34.61903 2511 ft 225 kts 197°
2026-04-26 14:06 25.47310 34.60803 2594 ft 248 kts 238°
2026-04-26 14:06 25.46758 34.58949 2767 ft 268 kts 259°
2026-04-26 14:06 25.46543 34.56867 3218 ft 275 kts 265°
2026-04-26 14:07 25.46446 34.54753 3822 ft 275 kts 266°
2026-04-26 14:07 25.46374 34.52646 4525 ft 272 kts 266°
2026-04-26 14:07 25.46290 34.50560 5190 ft 270 kts 266°
2026-04-26 14:07 25.46186 34.48497 5878 ft 268 kts 265°
2026-04-26 14:08 25.46065 34.46441 6475 ft 268 kts 266°
2026-04-26 14:08 25.45930 34.44386 7020 ft 269 kts 266°
2026-04-26 14:08 25.45790 34.42309 7560 ft 271 kts 266°
2026-04-26 14:08 25.45648 34.40224 8140 ft 272 kts 266°
2026-04-26 14:09 25.45504 34.38126 8653 ft 274 kts 266°
2026-04-26 14:09 25.45358 34.36014 9214 ft 276 kts 266°
2026-04-26 14:09 25.45207 34.33886 9791 ft 279 kts 266°
2026-04-26 14:09 25.45054 34.31732 10213 ft 287 kts 266°
2026-04-26 14:10 25.44892 34.29462 10332 ft 305 kts 266°
2026-04-26 14:10 25.44718 34.27056 10454 ft 323 kts 266°
2026-04-26 14:10 25.44534 34.24511 10606 ft 339 kts 266°
2026-04-26 14:10 25.44345 34.21891 11007 ft 344 kts 265°
2026-04-26 14:11 25.43967 34.16565 12094 ft 350 kts 266°
2026-04-26 14:11 25.43774 34.13876 12656 ft 351 kts 265°
2026-04-26 14:11 25.43578 34.11174 13221 ft 354 kts 265°
2026-04-26 14:12 25.43383 34.08456 13811 ft 355 kts 266°
2026-04-26 14:12 25.43187 34.05731 14332 ft 356 kts 265°
2026-04-26 14:12 25.42989 34.02993 14856 ft 358 kts 265°
2026-04-26 14:12 25.42790 34.00246 15387 ft 359 kts 265°
2026-04-26 14:13 25.42382 33.94721 16424 ft 362 kts 264°
2026-04-26 14:13 25.42357 33.91923 16918 ft 366 kts 273°
2026-04-26 14:13 25.42845 33.89149 17409 ft 371 kts 284°
2026-04-26 14:14 25.43647 33.86419 17877 ft 374 kts 284°
2026-04-26 14:14 25.44452 33.83672 18313 ft 377 kts 284°
2026-04-26 14:14 25.45244 33.80941 18733 ft 378 kts 284°
2026-04-26 14:14 25.46046 33.78165 19184 ft 380 kts 284°
2026-04-26 14:15 25.46850 33.75377 19629 ft 381 kts 284°
2026-04-26 14:15 25.47655 33.72582 20080 ft 382 kts 284°
2026-04-26 14:15 25.48464 33.69775 20521 ft 383 kts 284°
2026-04-26 14:15 25.49274 33.66963 20946 ft 384 kts 284°
2026-04-26 14:16 25.50086 33.64140 21363 ft 385 kts 284°
2026-04-26 14:16 25.50900 33.61313 21777 ft 386 kts 284°
2026-04-26 14:16 25.51719 33.58477 22181 ft 387 kts 284°
2026-04-26 14:16 25.52542 33.55629 22577 ft 389 kts 284°
2026-04-26 14:17 25.53364 33.52777 22975 ft 390 kts 284°
2026-04-26 14:17 25.54186 33.49915 23349 ft 391 kts 284°
2026-04-26 14:17 25.55009 33.47044 23680 ft 392 kts 284°
2026-04-26 14:17 25.55832 33.44165 24008 ft 393 kts 284°
2026-04-26 14:18 25.56657 33.41281 24331 ft 393 kts 284°
2026-04-26 14:18 25.57484 33.38389 24652 ft 394 kts 284°
2026-04-26 14:18 25.58311 33.35497 24965 ft 395 kts 284°
2026-04-26 14:18 25.59142 33.32595 25280 ft 395 kts 284°
2026-04-26 14:19 25.59974 33.29695 25588 ft 396 kts 284°
2026-04-26 14:19 25.60804 33.26788 25897 ft 397 kts 284°
2026-04-26 14:19 25.61639 33.23867 26197 ft 397 kts 284°
2026-04-26 14:19 25.62475 33.20949 26499 ft 398 kts 284°
2026-04-26 14:20 25.63311 33.18021 26782 ft 399 kts 284°
2026-04-26 14:20 25.64147 33.15085 27051 ft 400 kts 284°
2026-04-26 14:20 25.64982 33.12147 27316 ft 401 kts 284°
2026-04-26 14:20 25.65818 33.09198 27584 ft 401 kts 284°
2026-04-26 14:21 25.66655 33.06241 27844 ft 402 kts 284°
2026-04-26 14:21 25.67492 33.03279 28115 ft 403 kts 284°
2026-04-26 14:21 25.68330 33.00306 28384 ft 404 kts 284°
2026-04-26 14:21 25.69170 32.97326 28648 ft 406 kts 284°
2026-04-26 14:22 25.70016 32.94336 28913 ft 407 kts 284°
2026-04-26 14:22 25.70860 32.91345 29223 ft 406 kts 284°
2026-04-26 14:22 25.71701 32.88361 29627 ft 404 kts 284°
2026-04-26 14:22 25.72535 32.85393 30030 ft 402 kts 284°
2026-04-26 14:23 25.73364 32.82444 30351 ft 400 kts 283°
2026-04-26 14:23 25.74201 32.79511 30671 ft 398 kts 285°
2026-04-26 14:23 25.75350 32.76705 30990 ft 402 kts 294°
2026-04-26 14:23 25.76941 32.74182 31292 ft 408 kts 302°
2026-04-26 14:24 25.78782 32.71737 31592 ft 406 kts 302°
2026-04-26 14:24 25.80564 32.69370 31878 ft 404 kts 302°
2026-04-26 14:24 25.82363 32.66978 32166 ft 402 kts 301°
2026-04-26 14:24 25.84152 32.64596 32449 ft 400 kts 301°
2026-04-26 14:25 25.85929 32.62231 32736 ft 398 kts 301°
2026-04-26 14:25 25.87701 32.59873 32961 ft 397 kts 301°
2026-04-26 14:25 25.89465 32.57529 33211 ft 394 kts 301°
2026-04-26 14:25 25.91217 32.55193 33435 ft 393 kts 300°
2026-04-26 14:26 25.92961 32.52863 33683 ft 391 kts 300°
2026-04-26 14:26 25.94697 32.50541 33872 ft 390 kts 300°
2026-04-26 14:26 25.96426 32.48227 33917 ft 389 kts 300°
2026-04-26 14:26 25.98284 32.46007 33910 ft 401 kts 310°
2026-04-26 14:27 26.00718 32.44336 33928 ft 421 kts 321°
2026-04-26 14:27 26.06020 32.41501 33922 ft 424 kts 322°
2026-04-26 14:28 26.11357 32.38706 33921 ft 424 kts 322°
2026-04-26 14:28 26.16684 32.35895 33927 ft 423 kts 322°
2026-04-26 14:29 26.22003 32.33074 33939 ft 423 kts 321°
2026-04-26 14:29 26.27316 32.30237 33948 ft 424 kts 321°
2026-04-26 14:30 26.32634 32.27397 33955 ft 424 kts 321°
2026-04-26 14:30 26.37951 32.24560 33957 ft 424 kts 321°
2026-04-26 14:31 26.43273 32.21724 33961 ft 424 kts 321°
2026-04-26 14:31 26.48587 32.18881 33966 ft 424 kts 321°
2026-04-26 14:32 26.53904 32.16030 33968 ft 424 kts 321°
2026-04-26 14:32 26.59223 32.13182 33970 ft 424 kts 321°
2026-04-26 14:33 26.64538 32.10332 33971 ft 424 kts 321°
2026-04-26 14:33 26.69850 32.07473 33968 ft 424 kts 321°
2026-04-26 14:34 26.75167 32.04617 33973 ft 424 kts 321°
2026-04-26 14:34 26.80490 32.01754 33981 ft 425 kts 322°
2026-04-26 14:35 26.85820 31.98890 33980 ft 425 kts 322°
2026-04-26 14:35 26.91148 31.96014 33983 ft 425 kts 322°
2026-04-26 14:36 26.96443 31.93152 33989 ft 426 kts 322°
2026-04-26 14:36 27.01784 31.90266 33981 ft 426 kts 322°
2026-04-26 14:37 27.07137 31.87377 33986 ft 427 kts 322°
2026-04-26 14:37 27.12491 31.84478 33988 ft 428 kts 322°
2026-04-26 14:38 27.17853 31.81575 33999 ft 428 kts 322°
2026-04-26 14:38 27.23222 31.78665 34004 ft 428 kts 322°
2026-04-26 14:39 27.28592 31.75745 34009 ft 429 kts 322°
2026-04-26 14:39 27.33965 31.72821 34016 ft 429 kts 322°
2026-04-26 14:40 27.39347 31.69897 34026 ft 430 kts 322°
2026-04-26 14:40 27.44728 31.66964 34030 ft 430 kts 322°
2026-04-26 14:41 27.50109 31.64031 34035 ft 429 kts 322°
2026-04-26 14:41 27.55483 31.61094 34040 ft 429 kts 322°
2026-04-26 14:42 27.60858 31.58150 34050 ft 429 kts 322°
2026-04-26 14:42 27.66226 31.55211 34047 ft 429 kts 322°
2026-04-26 14:43 27.71600 31.52275 34055 ft 429 kts 322°
2026-04-26 14:43 27.76961 31.49333 34054 ft 428 kts 322°
2026-04-26 14:44 27.82318 31.46393 34057 ft 428 kts 322°
2026-04-26 14:44 27.87669 31.43453 34053 ft 427 kts 322°
2026-04-26 14:45 27.93006 31.40508 34052 ft 427 kts 322°
2026-04-26 14:45 27.98339 31.37567 34055 ft 426 kts 323°
2026-04-26 14:46 28.03668 31.34635 34061 ft 426 kts 323°
2026-04-26 14:46 28.08992 31.31700 34066 ft 425 kts 323°
2026-04-26 14:47 28.14296 31.28757 34064 ft 424 kts 323°
2026-04-26 14:47 28.19599 31.25819 34062 ft 424 kts 323°
2026-04-26 14:48 28.24893 31.22884 34064 ft 423 kts 323°
2026-04-26 14:48 28.30182 31.19955 34061 ft 423 kts 323°
2026-04-26 14:49 28.34573 31.17528 34054 ft 422 kts 323°
2026-04-26 14:49 28.39854 31.14600 34050 ft 422 kts 323°
2026-04-26 14:50 28.45113 31.11662 34048 ft 421 kts 323°
2026-04-26 14:50 28.50375 31.08732 34049 ft 421 kts 323°
2026-04-26 14:51 28.55636 31.05806 34052 ft 421 kts 323°
2026-04-26 14:51 28.60888 31.02868 34059 ft 420 kts 323°
2026-04-26 14:52 28.66133 30.99936 34049 ft 420 kts 323°
2026-04-26 14:52 28.71368 30.97006 34047 ft 419 kts 323°
2026-04-26 14:53 28.76605 30.94070 34045 ft 419 kts 323°
2026-04-26 14:53 28.81832 30.91141 34045 ft 419 kts 323°
2026-04-26 14:54 28.87058 30.88211 34044 ft 418 kts 323°
2026-04-26 14:54 28.92240 30.85300 34040 ft 418 kts 323°
2026-04-26 14:55 28.97448 30.82367 34035 ft 417 kts 323°
2026-04-26 14:55 29.02649 30.79434 34038 ft 417 kts 323°
2026-04-26 14:56 29.07850 30.76503 34037 ft 417 kts 323°
2026-04-26 14:56 29.13051 30.73571 34042 ft 416 kts 323°
2026-04-26 14:57 29.18243 30.70638 34028 ft 416 kts 323°
2026-04-26 14:57 29.23435 30.67695 34023 ft 416 kts 323°
2026-04-26 14:58 29.28621 30.64756 34020 ft 416 kts 323°
2026-04-26 14:58 29.33815 30.61814 34016 ft 416 kts 323°
2026-04-26 14:59 29.39009 30.58864 34019 ft 417 kts 323°
2026-04-26 14:59 29.44203 30.55906 34013 ft 417 kts 323°
2026-04-26 15:00 29.49399 30.52947 34017 ft 417 kts 323°
2026-04-26 15:00 29.54607 30.49984 34012 ft 418 kts 323°
2026-04-26 15:01 29.59816 30.47018 34013 ft 418 kts 323°
2026-04-26 15:01 29.65031 30.44038 34011 ft 419 kts 323°
2026-04-26 15:02 29.70252 30.41049 34009 ft 419 kts 323°
2026-04-26 15:02 29.75447 30.38075 34007 ft 420 kts 323°
2026-04-26 15:03 29.80683 30.35076 34009 ft 421 kts 323°
2026-04-26 15:03 29.85925 30.32066 34006 ft 421 kts 323°
2026-04-26 15:04 29.91175 30.29054 34006 ft 422 kts 323°
2026-04-26 15:04 29.96436 30.26034 34003 ft 422 kts 323°
2026-04-26 15:05 30.01696 30.23001 34001 ft 423 kts 324°
2026-04-26 15:05 30.06964 30.19957 33998 ft 424 kts 324°
2026-04-26 15:06 30.12245 30.16912 33997 ft 425 kts 324°
2026-04-26 15:06 30.17537 30.13862 33984 ft 425 kts 324°
2026-04-26 15:07 30.25473 30.09268 33987 ft 425 kts 324°
2026-04-26 15:07 30.30764 30.06199 33990 ft 426 kts 324°
2026-04-26 15:08 30.36061 30.03123 33997 ft 426 kts 324°
2026-04-26 15:08 30.41365 30.00042 33996 ft 427 kts 324°
2026-04-26 15:09 30.46683 29.96952 34000 ft 428 kts 324°
2026-04-26 15:09 30.51999 29.93853 34005 ft 428 kts 325°
2026-04-26 15:10 30.56425 29.91274 34003 ft 428 kts 325°
2026-04-26 15:10 30.62618 29.87657 34004 ft 429 kts 325°
2026-04-26 15:11 30.67950 29.84536 34007 ft 430 kts 325°
2026-04-26 15:11 30.73297 29.81410 34009 ft 430 kts 325°
2026-04-26 15:12 30.78642 29.78281 34001 ft 430 kts 325°
2026-04-26 15:12 30.83992 29.75139 34003 ft 431 kts 326°
2026-04-26 15:13 30.89340 29.72002 34001 ft 431 kts 326°
2026-04-26 15:13 30.94691 29.68850 34005 ft 431 kts 326°
2026-04-26 15:14 31.00039 29.65702 34007 ft 431 kts 326°
2026-04-26 15:14 31.05388 29.62546 34010 ft 431 kts 326°
2026-04-26 15:15 31.10738 29.59388 34004 ft 431 kts 326°
2026-04-26 15:15 31.16077 29.56235 33997 ft 431 kts 326°
2026-04-26 15:16 31.21426 29.53068 33998 ft 431 kts 326°
2026-04-26 15:16 31.26732 29.49915 33997 ft 431 kts 326°
2026-04-26 15:17 31.31206 29.47250 34001 ft 431 kts 326°
2026-04-26 15:17 31.37426 29.43558 33993 ft 432 kts 326°
2026-04-26 15:18 31.42789 29.40376 33990 ft 432 kts 326°
2026-04-26 15:18 31.48155 29.37173 33985 ft 433 kts 326°
2026-04-26 15:19 31.53533 29.33967 33977 ft 434 kts 327°
2026-04-26 15:19 31.59213 29.31385 33976 ft 447 kts 342°
2026-04-26 15:20 31.65505 29.30881 33973 ft 458 kts 353°
2026-04-26 15:20 31.71878 29.30829 33976 ft 458 kts 353°
2026-04-26 15:21 31.78250 29.30766 33977 ft 458 kts 353°
2026-04-26 15:21 31.84625 29.30699 33981 ft 458 kts 353°
2026-04-26 15:22 31.90957 29.30627 33986 ft 458 kts 353°
2026-04-26 15:22 31.97329 29.30559 33985 ft 458 kts 353°
2026-04-26 15:23 32.03700 29.30494 33989 ft 457 kts 353°
2026-04-26 15:23 32.10060 29.30427 33981 ft 457 kts 353°
2026-04-26 15:24 32.16421 29.30361 33989 ft 457 kts 353°
2026-04-26 15:24 32.22560 29.29149 33977 ft 442 kts 335°
2026-04-26 15:25 32.27123 29.26618 33978 ft 434 kts 326°
2026-04-26 15:25 32.33329 29.22628 33975 ft 435 kts 327°
2026-04-26 15:26 32.38645 29.19215 33978 ft 435 kts 327°
2026-04-26 15:26 32.43924 29.15821 33977 ft 435 kts 327°
2026-04-26 15:27 32.49239 29.12398 33966 ft 435 kts 327°
2026-04-26 15:27 32.54558 29.08967 33969 ft 435 kts 327°
2026-04-26 15:28 32.59878 29.05529 33964 ft 435 kts 327°
2026-04-26 15:28 32.65195 29.02090 33963 ft 435 kts 327°
2026-04-26 15:29 32.70517 28.98649 33956 ft 436 kts 327°
2026-04-26 15:30 32.81179 28.91743 33955 ft 437 kts 327°
2026-04-26 15:30 32.86522 28.88262 33961 ft 438 kts 328°
2026-04-26 15:31 32.94490 28.83055 33958 ft 438 kts 328°
2026-04-26 15:32 33.00743 28.78977 33956 ft 438 kts 328°
2026-04-26 15:32 33.07859 28.74335 33963 ft 438 kts 328°
2026-04-26 15:33 33.13206 28.70838 33960 ft 438 kts 328°
2026-04-26 15:33 33.18544 28.67332 33953 ft 438 kts 328°
2026-04-26 15:34 33.23879 28.63823 33962 ft 438 kts 328°
2026-04-26 15:34 33.29207 28.60315 33961 ft 437 kts 329°
2026-04-26 15:35 33.34532 28.56811 33966 ft 437 kts 329°
2026-04-26 15:35 33.39819 28.53322 33973 ft 437 kts 329°
2026-04-26 15:36 33.45139 28.49813 33968 ft 436 kts 329°
2026-04-26 15:36 33.50457 28.46298 33970 ft 436 kts 329°
2026-04-26 15:37 33.55767 28.42775 33977 ft 436 kts 329°
2026-04-26 15:37 33.61074 28.39248 33964 ft 436 kts 329°
2026-04-26 15:38 33.66378 28.35725 33970 ft 436 kts 329°
2026-04-26 15:38 33.71686 28.32202 33970 ft 436 kts 329°
2026-04-26 15:39 33.76990 28.28673 33972 ft 436 kts 330°
2026-04-26 15:39 33.80499 28.26335 33970 ft 436 kts 330°
2026-04-26 15:40 33.87580 28.21572 33971 ft 436 kts 330°
2026-04-26 15:40 33.92858 28.17991 33973 ft 435 kts 330°
2026-04-26 15:41 33.98099 28.14437 33976 ft 435 kts 330°
2026-04-26 15:41 34.03370 28.10864 33979 ft 435 kts 330°
2026-04-26 15:42 34.08636 28.07288 33978 ft 434 kts 330°
2026-04-26 15:42 34.13891 28.03720 33980 ft 433 kts 331°
2026-04-26 15:43 34.19140 28.00151 33978 ft 433 kts 331°
2026-04-26 15:44 34.26111 27.95403 33980 ft 432 kts 331°
2026-04-26 15:44 34.33958 27.90050 33982 ft 431 kts 331°
2026-04-26 15:45 34.41783 27.84686 33979 ft 431 kts 331°
2026-04-26 15:46 34.49605 27.79321 33975 ft 430 kts 331°
2026-04-26 15:46 34.53932 27.76347 33975 ft 430 kts 332°
2026-04-26 15:47 34.62607 27.70361 33972 ft 430 kts 332°
2026-04-26 15:48 34.67803 27.66760 33968 ft 430 kts 332°
2026-04-26 15:48 34.72995 27.63160 33969 ft 430 kts 332°
2026-04-26 15:49 34.78156 27.59583 33966 ft 430 kts 332°
2026-04-26 15:49 34.83352 27.55975 33964 ft 430 kts 332°
2026-04-26 15:50 34.88555 27.52355 33968 ft 430 kts 332°
2026-04-26 15:50 34.93750 27.48724 33969 ft 431 kts 332°
2026-04-26 15:51 34.98944 27.45086 33978 ft 431 kts 332°
2026-04-26 15:51 35.04143 27.41458 33978 ft 430 kts 332°
2026-04-26 15:52 35.09339 27.37821 33980 ft 430 kts 332°
2026-04-26 15:52 35.14523 27.34180 33984 ft 430 kts 332°
2026-04-26 15:53 35.19699 27.30541 33980 ft 429 kts 333°
2026-04-26 15:53 35.24832 27.26937 33976 ft 428 kts 333°
2026-04-26 15:54 35.29982 27.23310 33972 ft 426 kts 333°
2026-04-26 15:54 35.35112 27.19686 33964 ft 425 kts 333°
2026-04-26 15:55 35.40226 27.16062 33967 ft 424 kts 333°
2026-04-26 15:55 35.45479 27.12837 33964 ft 421 kts 338°
2026-04-26 15:56 35.50804 27.09856 33967 ft 420 kts 338°
2026-04-26 15:56 35.56116 27.06861 33976 ft 420 kts 338°
2026-04-26 15:57 35.61420 27.03870 33982 ft 419 kts 338°
2026-04-26 15:57 35.66709 27.00880 33990 ft 418 kts 338°
2026-04-26 15:58 35.71999 26.97889 33995 ft 418 kts 338°
2026-04-26 15:58 35.77278 26.94906 33998 ft 417 kts 338°
2026-04-26 15:59 35.82519 26.91938 34002 ft 417 kts 338°
2026-04-26 15:59 35.87789 26.88944 33998 ft 417 kts 338°
2026-04-26 16:00 35.93049 26.85932 34006 ft 417 kts 338°
2026-04-26 16:00 35.98309 26.82906 34001 ft 417 kts 338°
2026-04-26 16:01 36.03567 26.79882 34002 ft 417 kts 338°
2026-04-26 16:01 36.08822 26.76861 34009 ft 417 kts 338°
2026-04-26 16:02 36.14075 26.73834 34001 ft 416 kts 338°
2026-04-26 16:02 36.19309 26.70818 33980 ft 415 kts 338°
2026-04-26 16:03 36.24551 26.67809 33984 ft 415 kts 338°
2026-04-26 16:03 36.29789 26.64783 33997 ft 415 kts 338°
2026-04-26 16:04 36.35027 26.61747 33981 ft 416 kts 338°
2026-04-26 16:04 36.40267 26.58711 33999 ft 416 kts 338°
2026-04-26 16:05 36.45513 26.55667 34000 ft 416 kts 338°
2026-04-26 16:05 36.50756 26.52616 33998 ft 416 kts 338°
2026-04-26 16:06 36.55968 26.49583 34002 ft 417 kts 338°
2026-04-26 16:06 36.61251 26.46495 33998 ft 417 kts 338°
2026-04-26 16:07 36.66467 26.43445 34002 ft 417 kts 338°
2026-04-26 16:07 36.71718 26.40358 34004 ft 418 kts 337°
2026-04-26 16:08 36.76974 26.37263 34008 ft 418 kts 337°
2026-04-26 16:08 36.82236 26.34172 34002 ft 418 kts 337°
2026-04-26 16:09 36.87499 26.31080 34006 ft 418 kts 337°
2026-04-26 16:09 36.92765 26.27974 33999 ft 419 kts 337°
2026-04-26 16:10 36.98031 26.24853 34002 ft 419 kts 337°
2026-04-26 16:10 37.03294 26.21696 34001 ft 420 kts 336°
2026-04-26 16:11 37.08536 26.18472 34006 ft 420 kts 336°
2026-04-26 16:11 37.13787 26.15235 34003 ft 421 kts 336°
2026-04-26 16:12 37.19053 26.12011 34003 ft 422 kts 336°
2026-04-26 16:12 37.26972 26.07172 34014 ft 423 kts 335°
2026-04-26 16:13 37.32263 26.03923 34013 ft 423 kts 335°
2026-04-26 16:13 37.37546 26.00671 34022 ft 423 kts 335°
2026-04-26 16:14 37.42836 25.97409 34018 ft 424 kts 335°
2026-04-26 16:15 37.50786 25.92502 34018 ft 424 kts 335°
2026-04-26 16:15 37.56045 25.89252 34012 ft 424 kts 335°
2026-04-26 16:16 37.64003 25.84316 34018 ft 425 kts 335°
2026-04-26 16:16 37.69311 25.81015 34025 ft 426 kts 335°
2026-04-26 16:17 37.74624 25.77703 34024 ft 426 kts 335°
2026-04-26 16:17 37.79936 25.74394 34028 ft 426 kts 335°
2026-04-26 16:18 37.87907 25.69409 34026 ft 426 kts 335°
2026-04-26 16:19 37.95886 25.64411 34031 ft 427 kts 335°
2026-04-26 16:20 38.03870 25.59403 34031 ft 427 kts 334°
2026-04-26 16:20 38.11860 25.54375 34036 ft 427 kts 334°
2026-04-26 16:21 38.17182 25.51013 34030 ft 427 kts 334°
2026-04-26 16:21 38.22505 25.47649 34036 ft 427 kts 334°
2026-04-26 16:22 38.27833 25.44282 34034 ft 428 kts 334°
2026-04-26 16:22 38.33125 25.40929 34042 ft 428 kts 334°
2026-04-26 16:23 38.38453 25.37548 34040 ft 428 kts 334°
2026-04-26 16:23 38.43779 25.34157 34044 ft 428 kts 334°
2026-04-26 16:24 38.49099 25.30761 34037 ft 428 kts 334°
2026-04-26 16:24 38.54427 25.27363 34045 ft 428 kts 335°
2026-04-26 16:25 38.59759 25.23962 34038 ft 428 kts 335°
2026-04-26 16:25 38.65084 25.20555 34043 ft 428 kts 334°
2026-04-26 16:26 38.69510 25.17713 34039 ft 428 kts 334°
2026-04-26 16:26 38.75735 25.13720 34039 ft 428 kts 334°
2026-04-26 16:27 38.81061 25.10293 34039 ft 428 kts 334°
2026-04-26 16:27 38.86387 25.06863 34041 ft 428 kts 334°
2026-04-26 16:28 38.91713 25.03427 34041 ft 429 kts 334°
2026-04-26 16:28 38.97038 24.99978 34042 ft 429 kts 334°
2026-04-26 16:29 39.02362 24.96518 34040 ft 429 kts 334°
2026-04-26 16:29 39.07690 24.93058 34044 ft 429 kts 334°
2026-04-26 16:30 39.12995 24.89651 34044 ft 429 kts 335°
2026-04-26 16:30 39.18375 24.86329 34043 ft 429 kts 335°
2026-04-26 16:31 39.23766 24.83031 34041 ft 429 kts 335°
2026-04-26 16:31 39.29143 24.79701 34041 ft 429 kts 335°
2026-04-26 16:32 39.33605 24.76918 34038 ft 429 kts 335°
2026-04-26 16:32 39.39883 24.73003 34038 ft 429 kts 335°
2026-04-26 16:33 39.45254 24.69650 34038 ft 429 kts 335°
2026-04-26 16:33 39.50631 24.66290 34034 ft 429 kts 335°
2026-04-26 16:34 39.56001 24.62922 34034 ft 429 kts 335°
2026-04-26 16:34 39.61366 24.59550 34036 ft 429 kts 335°
2026-04-26 16:35 39.66734 24.56172 34035 ft 429 kts 335°
2026-04-26 16:35 39.72095 24.52789 34036 ft 428 kts 335°
2026-04-26 16:36 39.76551 24.49985 34018 ft 428 kts 335°
2026-04-26 16:36 39.81905 24.46602 34035 ft 428 kts 335°
2026-04-26 16:37 39.87263 24.43214 34038 ft 428 kts 335°
2026-04-26 16:37 39.92612 24.39818 34023 ft 428 kts 335°
2026-04-26 16:38 39.97964 24.36412 34031 ft 428 kts 335°
2026-04-26 16:38 40.03315 24.33007 34015 ft 428 kts 335°
2026-04-26 16:39 40.08672 24.29594 34028 ft 428 kts 335°
2026-04-26 16:39 40.14030 24.26174 34030 ft 429 kts 335°
2026-04-26 16:40 40.19388 24.22746 34016 ft 429 kts 335°
2026-04-26 16:40 40.24743 24.19312 34022 ft 428 kts 335°
2026-04-26 16:41 40.30090 24.15870 34021 ft 428 kts 335°
2026-04-26 16:41 40.35441 24.12428 34014 ft 428 kts 335°
2026-04-26 16:42 40.40790 24.08982 33998 ft 428 kts 335°
2026-04-26 16:42 40.46101 24.05557 34009 ft 428 kts 335°
2026-04-26 16:43 40.51445 24.02104 34003 ft 428 kts 335°
2026-04-26 16:43 40.56785 23.98648 34003 ft 428 kts 335°
2026-04-26 16:44 40.62368 23.96129 33988 ft 424 kts 351°
2026-04-26 16:44 40.68176 23.94775 33996 ft 424 kts 351°
2026-04-26 16:45 40.73979 23.93387 33991 ft 424 kts 351°
2026-04-26 16:45 40.79776 23.91997 33993 ft 424 kts 351°
2026-04-26 16:46 40.85579 23.90612 33992 ft 423 kts 351°
2026-04-26 16:46 40.91369 23.89231 33982 ft 423 kts 351°
2026-04-26 16:47 40.97156 23.87845 33984 ft 422 kts 351°
2026-04-26 16:47 41.02937 23.86455 33974 ft 422 kts 351°
2026-04-26 16:48 41.08711 23.85065 33975 ft 422 kts 351°
2026-04-26 16:48 41.14489 23.83676 33971 ft 422 kts 351°
2026-04-26 16:49 41.20231 23.82291 33970 ft 422 kts 351°
2026-04-26 16:49 41.26041 23.80884 33976 ft 422 kts 351°
2026-04-26 16:50 41.31780 23.79494 33993 ft 422 kts 351°
2026-04-26 16:50 41.37547 23.78099 33996 ft 422 kts 351°
2026-04-26 16:51 41.43330 23.76738 33996 ft 421 kts 352°
2026-04-26 16:51 41.49121 23.75546 34001 ft 421 kts 353°
2026-04-26 16:52 41.53943 23.74594 34009 ft 421 kts 353°
2026-04-26 16:52 41.60708 23.73211 34001 ft 421 kts 352°
2026-04-26 16:53 41.66485 23.71992 34011 ft 420 kts 352°
2026-04-26 16:53 41.72261 23.70770 34012 ft 420 kts 352°
2026-04-26 16:54 41.78042 23.69561 34025 ft 420 kts 352°
2026-04-26 16:54 41.83817 23.68352 34033 ft 420 kts 352°
2026-04-26 16:55 41.89599 23.67136 34051 ft 420 kts 352°
2026-04-26 16:55 41.95374 23.65919 34047 ft 420 kts 352°
2026-04-26 16:56 42.03991 23.64098 34061 ft 420 kts 352°
2026-04-26 16:57 42.09762 23.62876 34057 ft 419 kts 352°
2026-04-26 16:57 42.18414 23.61033 34057 ft 420 kts 352°
2026-04-26 16:58 42.23248 23.60006 34067 ft 420 kts 352°
2026-04-26 16:59 42.29019 23.58774 34058 ft 420 kts 352°
2026-04-26 17:00 42.39677 23.56503 34051 ft 420 kts 352°
2026-04-26 17:00 42.48359 23.54641 34067 ft 420 kts 352°
2026-04-26 17:01 42.54136 23.53396 34057 ft 420 kts 352°
2026-04-26 17:01 42.59900 23.52155 34074 ft 420 kts 349°
2026-04-26 17:02 42.65680 23.50905 34073 ft 420 kts 351°
2026-04-26 17:02 42.71445 23.49664 34062 ft 420 kts 351°
2026-04-26 17:03 42.77177 23.48419 34071 ft 420 kts 351°
2026-04-26 17:03 42.82941 23.47164 34063 ft 420 kts 351°
2026-04-26 17:04 42.88711 23.45915 34068 ft 420 kts 351°
2026-04-26 17:04 42.94484 23.44658 34062 ft 420 kts 351°
2026-04-26 17:05 43.00258 23.43390 34058 ft 420 kts 351°
2026-04-26 17:05 43.06025 23.42127 34058 ft 420 kts 350°
2026-04-26 17:06 43.11797 23.40872 34055 ft 420 kts 351°
2026-04-26 17:06 43.17565 23.39610 34054 ft 420 kts 350°
2026-04-26 17:07 43.23330 23.38340 34066 ft 419 kts 350°
2026-04-26 17:07 43.29091 23.37064 34056 ft 419 kts 350°
2026-04-26 17:08 43.34850 23.35791 34053 ft 419 kts 350°
2026-04-26 17:08 43.40613 23.34521 34054 ft 419 kts 350°
2026-04-26 17:09 43.45398 23.33458 34052 ft 419 kts 349°
2026-04-26 17:09 43.52131 23.31962 34049 ft 419 kts 349°
2026-04-26 17:10 43.57892 23.30685 34042 ft 419 kts 349°
2026-04-26 17:10 43.63657 23.29410 34054 ft 419 kts 349°
2026-04-26 17:11 43.69411 23.28133 34049 ft 419 kts 349°
2026-04-26 17:11 43.75170 23.26842 34053 ft 419 kts 349°
2026-04-26 17:12 43.83799 23.24819 34039 ft 418 kts 344°
2026-04-26 17:13 43.92204 23.21586 34041 ft 418 kts 343°
2026-04-26 17:14 44.00580 23.18387 34050 ft 418 kts 343°
2026-04-26 17:14 44.09023 23.15138 34050 ft 418 kts 342°
2026-04-26 17:15 44.17386 23.11906 34055 ft 418 kts 342°
2026-04-26 17:16 44.22991 23.09732 34054 ft 418 kts 342°
2026-04-26 17:16 44.28589 23.07550 34053 ft 418 kts 342°
2026-04-26 17:17 44.34185 23.05372 34054 ft 418 kts 342°
2026-04-26 17:17 44.39784 23.03194 34052 ft 417 kts 342°
2026-04-26 17:18 44.45378 23.01017 34053 ft 417 kts 342°
2026-04-26 17:18 44.50974 22.98826 34052 ft 417 kts 342°
2026-04-26 17:19 44.59369 22.95537 34056 ft 417 kts 342°
2026-04-26 17:19 44.64964 22.93349 34053 ft 418 kts 342°
2026-04-26 17:20 44.68716 22.91872 34043 ft 419 kts 342°
2026-04-26 17:20 44.76201 22.88908 34038 ft 420 kts 342°
2026-04-26 17:21 44.81829 22.86677 34046 ft 420 kts 341°
2026-04-26 17:21 44.87462 22.84449 34061 ft 420 kts 341°
2026-04-26 17:22 44.93081 22.82221 34070 ft 419 kts 341°
2026-04-26 17:22 44.98684 22.79985 34080 ft 418 kts 341°
2026-04-26 17:23 45.03344 22.78130 34079 ft 418 kts 341°
2026-04-26 17:23 45.08930 22.75899 34091 ft 417 kts 341°
2026-04-26 17:24 45.14504 22.73666 34086 ft 416 kts 341°
2026-04-26 17:24 45.20072 22.71426 34082 ft 416 kts 341°
2026-04-26 17:25 45.25655 22.69180 34077 ft 417 kts 341°
2026-04-26 17:25 45.31244 22.66930 34082 ft 419 kts 341°
2026-04-26 17:26 45.36856 22.64670 34083 ft 420 kts 340°
2026-04-26 17:26 45.42487 22.62387 34092 ft 421 kts 340°
2026-04-26 17:27 45.48131 22.60099 34106 ft 422 kts 340°
2026-04-26 17:27 45.53789 22.57806 34112 ft 423 kts 340°
2026-04-26 17:28 45.59438 22.55508 34124 ft 423 kts 340°